Location: Garbet
(42.8837°N, 1.2115°E)
Time: 07:29:23
(UTC+00:00)

Cosmos 1953 Rocket - Pass Details

Date: 20 March 2026
Orbit: 599 x 626 km, 82.5° (Epoch: 18 April)

Event Time Altitude Azimuth Distance (km) Brightness Sun altitude
Rises 19:06:39 0° 217° (SW) 2,833 7.3 -11.6°
Reaches altitude 10° 19:09:09 10° 230° (SW) 1,938 6.7 -12.1°
Maximum altitude 19:12:43 25° 286° (WNW) 1,220 6.1 -12.7°
Drops below altitude 10° 19:16:20 10° 343° (NNW) 1,959 6.5 -13.3°
Sets 19:18:53 0° 357° (N) 2,872 7.2 -13.8°
